Time,TemperatureF,DewpointF,PressureIn,WindDirection,WindDirectionDegrees,WindSpeedMPH,WindSpeedGustMPH,Humidity,HourlyPrecipIn,Conditions,Clouds,dailyrainin,SoftwareType,DateUTC
2013-01-09 00:03:00,71.0,70.0,30.20,East,96,6.0,9.0,96,0.48,,,-99.99,,2013-01-09 05:03:00,
2013-01-09 00:12:00,71.0,70.0,30.20,East,96,6.0,9.0,96,0.48,,,-99.99,,2013-01-09 05:12:00,
2013-01-09 00:22:00,71.0,70.0,30.19,ESE,104,6.0,9.0,97,0.48,,,-99.99,,2013-01-09 05:22:00,
2013-01-09 00:33:00,71.0,70.0,30.20,East,97,6.0,9.0,98,0.48,,,-99.99,,2013-01-09 05:33:00,
2013-01-09 00:42:00,71.0,70.0,30.20,East,97,6.0,9.0,98,0.48,,,-99.99,,2013-01-09 05:42:00,
2013-01-09 00:53:00,71.0,71.0,30.19,ESE,108,6.0,9.0,100,0.48,,,-99.99,,2013-01-09 05:53:00,
2013-01-09 01:02:00,71.0,71.0,30.19,East,98,6.0,9.0,100,0.48,,,-99.99,,2013-01-09 06:02:00,
2013-01-09 01:12:00,71.0,71.0,30.19,East,98,6.0,9.0,100,0.48,,,-99.99,,2013-01-09 06:12:00,
2013-01-09 01:22:00,71.0,71.0,30.19,ESE,103,4.0,9.0,100,0.48,,,-99.99,,2013-01-09 06:22:00,
2013-01-09 01:32:00,71.0,71.0,30.19,ESE,105,6.0,9.0,100,0.48,,,-99.99,,2013-01-09 06:32:00,
2013-01-09 01:42:00,71.0,71.0,30.19,ESE,105,6.0,9.0,100,0.48,,,-99.99,,2013-01-09 06:42:00,
2013-01-09 01:52:00,71.0,71.0,30.19,ESE,103,6.0,10.0,100,0.48,,,-99.99,,2013-01-09 06:52:00,
2013-01-09 02:02:00,71.0,71.0,30.20,ESE,118,7.0,10.0,100,0.48,,,-99.99,,2013-01-09 07:02:00,
2013-01-09 02:12:00,71.0,71.0,30.20,ESE,118,7.0,10.0,100,0.48,,,-99.99,,2013-01-09 07:12:00,
2013-01-09 02:22:00,70.0,70.0,30.20,ESE,121,7.0,12.0,100,0.48,,,-99.99,,2013-01-09 07:22:00,
2013-01-09 02:32:00,70.0,70.0,30.20,East,98,6.0,9.0,100,0.48,,,-99.99,,2013-01-09 07:32:00,
2013-01-09 02:42:00,70.0,70.0,30.20,East,98,6.0,9.0,100,0.48,,,-99.99,,2013-01-09 07:42:00,
2013-01-09 02:52:00,70.0,70.0,30.20,East,91,6.0,10.0,100,0.48,,,-99.99,,2013-01-09 07:52:00,
2013-01-09 03:02:00,70.0,70.0,30.20,East,89,6.0,9.0,100,0.48,,,-99.99,,2013-01-09 08:02:00,
2013-01-09 03:12:00,70.0,70.0,30.20,East,89,6.0,9.0,100,0.48,,,-99.99,,2013-01-09 08:12:00,
2013-01-09 03:22:00,69.0,69.0,30.20,East,94,6.0,9.0,100,0.48,,,-99.99,,2013-01-09 08:22:00,
2013-01-09 03:32:00,69.0,69.0,30.19,East,94,7.0,9.0,100,0.48,,,-99.99,,2013-01-09 08:32:00,
2013-01-09 03:42:00,69.0,69.0,30.19,East,94,7.0,9.0,100,0.48,,,-99.99,,2013-01-09 08:42:00,
2013-01-09 03:53:00,69.0,69.0,30.20,East,89,6.0,11.0,100,0.48,,,-99.99,,2013-01-09 08:53:00,
2013-01-09 04:02:00,69.0,69.0,30.19,East,87,7.0,9.0,100,0.48,,,-99.99,,2013-01-09 09:02:00,
2013-01-09 04:12:00,69.0,69.0,30.19,East,87,7.0,9.0,100,0.48,,,-99.99,,2013-01-09 09:12:00,
2013-01-09 04:22:00,69.0,69.0,30.19,East,98,7.0,10.0,100,0.48,,,-99.99,,2013-01-09 09:22:00,
2013-01-09 04:32:00,69.0,69.0,30.19,East,80,8.0,11.0,100,0.48,,,-99.99,,2013-01-09 09:32:00,
2013-01-09 04:42:00,69.0,69.0,30.19,East,80,8.0,11.0,100,0.48,,,-99.99,,2013-01-09 09:42:00,
2013-01-09 04:53:00,69.0,69.0,30.19,East,87,7.0,10.0,100,0.48,,,-99.99,,2013-01-09 09:53:00,
2013-01-09 05:02:00,69.0,69.0,30.19,East,86,7.0,10.0,100,0.48,,,-99.99,,2013-01-09 10:02:00,
2013-01-09 05:12:00,69.0,69.0,30.19,East,86,7.0,10.0,100,0.48,,,-99.99,,2013-01-09 10:12:00,
2013-01-09 05:22:00,69.0,69.0,30.19,East,80,7.0,10.0,100,0.48,,,-99.99,,2013-01-09 10:22:00,
2013-01-09 05:32:00,70.0,70.0,30.19,East,101,7.0,10.0,100,0.48,,,-99.99,,2013-01-09 10:32:00,
2013-01-09 05:42:00,70.0,70.0,30.19,East,101,7.0,10.0,100,0.48,,,-99.99,,2013-01-09 10:42:00,
2013-01-09 05:52:00,70.0,70.0,30.19,East,96,6.0,10.0,100,0.48,,,-99.99,,2013-01-09 10:52:00,
2013-01-09 06:02:00,70.0,70.0,30.20,ESE,117,7.0,12.0,100,0.48,,,-99.99,,2013-01-09 11:02:00,
2013-01-09 06:12:00,70.0,70.0,30.20,ESE,117,7.0,12.0,100,0.48,,,-99.99,,2013-01-09 11:12:00,
2013-01-09 06:22:00,70.0,70.0,30.20,East,90,6.0,11.0,100,0.48,,,-99.99,,2013-01-09 11:22:00,
2013-01-09 06:32:00,70.0,70.0,30.21,SE,124,7.0,11.0,100,0.48,,,-99.99,,2013-01-09 11:32:00,
2013-01-09 06:42:00,70.0,70.0,30.21,SE,124,7.0,11.0,100,0.48,,,-99.99,,2013-01-09 11:42:00,
2013-01-09 06:53:00,69.0,69.0,30.21,ESE,110,7.0,10.0,100,0.48,,,-99.99,,2013-01-09 11:53:00,
2013-01-09 07:03:00,70.0,70.0,30.21,ESE,108,7.0,10.0,100,0.48,,,-99.99,,2013-01-09 12:03:00,
2013-01-09 07:12:00,70.0,70.0,30.21,ESE,108,7.0,10.0,100,0.48,,,-99.99,,2013-01-09 12:12:00,
2013-01-09 07:23:00,69.0,69.0,30.22,ESE,105,6.0,9.0,100,0.48,,,-99.99,,2013-01-09 12:23:00,
2013-01-09 07:33:00,69.0,69.0,30.22,East,101,7.0,11.0,100,0.48,,,-99.99,,2013-01-09 12:33:00,
2013-01-09 07:43:00,69.0,69.0,30.22,East,101,7.0,11.0,100,0.48,,,-99.99,,2013-01-09 12:43:00,
2013-01-09 07:53:00,69.0,69.0,30.23,East,101,6.0,10.0,100,0.48,,,-99.99,,2013-01-09 12:53:00,
2013-01-09 08:03:00,69.0,69.0,30.24,ESE,107,7.0,12.0,100,0.48,,,-99.99,,2013-01-09 13:03:00,
2013-01-09 08:12:00,69.0,69.0,30.24,ESE,107,7.0,12.0,100,0.48,,,-99.99,,2013-01-09 13:12:00,
2013-01-09 08:23:00,70.0,70.0,30.25,East,101,7.0,11.0,100,0.48,,,-99.99,,2013-01-09 13:23:00,
2013-01-09 08:33:00,70.0,70.0,30.25,ESE,108,6.0,10.0,100,0.48,,,-99.99,,2013-01-09 13:33:00,
2013-01-09 08:43:00,70.0,70.0,30.25,ESE,108,6.0,10.0,100,0.48,,,-99.99,,2013-01-09 13:43:00,
2013-01-09 08:53:00,71.0,71.0,30.26,East,100,7.0,12.0,99,0.48,,,-99.99,,2013-01-09 13:53:00,
2013-01-09 09:03:00,72.0,68.0,30.26,East,100,8.0,11.0,88,0.48,,,-99.99,,2013-01-09 14:03:00,
2013-01-09 09:12:00,73.0,66.0,30.27,ESE,105,10.0,15.0,80,0.48,,,-99.99,,2013-01-09 14:12:00,
2013-01-09 09:23:00,73.0,66.0,30.27,ESE,105,10.0,15.0,80,0.48,,,-99.99,,2013-01-09 14:23:00,
2013-01-09 09:33:00,73.0,65.0,30.27,SE,125,9.0,14.0,76,0.48,,,-99.99,,2013-01-09 14:33:00,
2013-01-09 09:43:00,73.0,65.0,30.27,SE,125,9.0,14.0,76,0.48,,,-99.99,,2013-01-09 14:43:00,
2013-01-09 09:53:00,74.0,65.0,30.27,SE,129,11.0,18.0,74,0.48,,,-99.99,,2013-01-09 14:53:00,
2013-01-09 10:03:00,74.0,66.0,30.27,ESE,104,11.0,17.0,76,0.48,,,-99.99,,2013-01-09 15:03:00,
2013-01-09 10:13:00,74.0,66.0,30.27,ESE,104,11.0,17.0,76,0.48,,,-99.99,,2013-01-09 15:13:00,
2013-01-09 10:23:00,75.0,65.0,30.28,ESE,111,11.0,16.0,72,0.48,,,-99.99,,2013-01-09 15:23:00,
2013-01-09 10:33:00,76.0,65.0,30.28,SE,125,10.0,17.0,70,0.48,,,-99.99,,2013-01-09 15:33:00,
2013-01-09 10:42:00,76.0,65.0,30.28,SE,125,10.0,17.0,70,0.48,,,-99.99,,2013-01-09 15:42:00,
2013-01-09 10:53:00,77.0,66.0,30.29,ESE,121,9.0,15.0,68,0.48,,,-99.99,,2013-01-09 15:53:00,
2013-01-09 11:03:00,77.0,66.0,30.29,ESE,113,9.0,15.0,68,0.48,,,-99.99,,2013-01-09 16:03:00,
2013-01-09 11:12:00,77.0,66.0,30.29,ESE,113,9.0,15.0,68,0.48,,,-99.99,,2013-01-09 16:12:00,
2013-01-09 11:23:00,78.0,67.0,30.28,ESE,121,8.0,12.0,68,0.48,,,-99.99,,2013-01-09 16:23:00,
2013-01-09 11:33:00,78.0,67.0,30.28,East,91,9.0,14.0,68,0.48,,,-99.99,,2013-01-09 16:33:00,
2013-01-09 11:43:00,78.0,67.0,30.28,East,91,9.0,14.0,68,0.48,,,-99.99,,2013-01-09 16:43:00,
2013-01-09 11:53:00,78.0,67.0,30.27,SE,135,8.0,12.0,68,0.48,,,-99.99,,2013-01-09 16:53:00,
2013-01-09 12:03:00,79.0,66.0,30.27,East,79,6.0,11.0,65,0.48,,,-99.99,,2013-01-09 17:03:00,
2013-01-09 12:12:00,79.0,66.0,30.27,East,79,6.0,11.0,65,0.48,,,-99.99,,2013-01-09 17:12:00,
2013-01-09 12:23:00,79.0,66.0,30.26,East,90,7.0,11.0,64,0.48,,,-99.99,,2013-01-09 17:23:00,
2013-01-09 12:33:00,80.0,67.0,30.26,ESE,105,7.0,11.0,64,0.48,,,-99.99,,2013-01-09 17:33:00,
2013-01-09 12:43:00,80.0,67.0,30.26,ESE,105,7.0,11.0,64,0.48,,,-99.99,,2013-01-09 17:43:00,
2013-01-09 12:53:00,80.0,67.0,30.25,ESE,105,8.0,13.0,64,0.48,,,-99.99,,2013-01-09 17:53:00,
2013-01-09 13:03:00,80.0,67.0,30.24,East,91,8.0,11.0,64,0.48,,,-99.99,,2013-01-09 18:03:00,
2013-01-09 13:12:00,80.0,67.0,30.24,East,91,8.0,11.0,64,0.48,,,-99.99,,2013-01-09 18:12:00,
2013-01-09 13:24:00,79.0,67.0,30.24,ESE,104,8.0,13.0,67,0.48,,,-99.99,,2013-01-09 18:24:00,
2013-01-09 13:33:00,80.0,66.0,30.24,East,86,8.0,12.0,63,0.48,,,-99.99,,2013-01-09 18:33:00,
2013-01-09 13:43:00,80.0,66.0,30.24,East,86,8.0,12.0,63,0.48,,,-99.99,,2013-01-09 18:43:00,
2013-01-09 13:53:00,81.0,66.0,30.23,East,87,8.0,13.0,61,0.48,,,-99.99,,2013-01-09 18:53:00,
2013-01-09 14:03:00,81.0,67.0,30.22,ESE,104,6.0,14.0,63,0.48,,,-99.99,,2013-01-09 19:03:00,
2013-01-09 14:13:00,81.0,67.0,30.22,ESE,104,6.0,14.0,63,0.48,,,-99.99,,2013-01-09 19:13:00,
2013-01-09 14:23:00,81.0,66.0,30.22,East,101,8.0,12.0,61,0.48,,,-99.99,,2013-01-09 19:23:00,
2013-01-09 14:33:00,83.0,66.0,30.22,SE,131,7.0,12.0,57,0.48,,,-99.99,,2013-01-09 19:33:00,
2013-01-09 14:43:00,83.0,66.0,30.22,SE,131,7.0,12.0,57,0.48,,,-99.99,,2013-01-09 19:43:00,
2013-01-09 14:53:00,83.0,66.0,30.21,ESE,118,6.0,9.0,57,0.48,,,-99.99,,2013-01-09 19:53:00,
2013-01-09 15:03:00,84.0,66.0,30.21,East,82,6.0,10.0,54,0.48,,,-99.99,,2013-01-09 20:03:00,
2013-01-09 15:12:00,84.0,66.0,30.21,East,82,6.0,10.0,54,0.48,,,-99.99,,2013-01-09 20:12:00,
2013-01-09 15:23:00,85.0,65.0,30.21,East,87,7.0,11.0,51,0.48,,,-99.99,,2013-01-09 20:23:00,
2013-01-09 15:33:00,85.0,64.0,30.21,ESE,104,8.0,11.0,49,0.48,,,-99.99,,2013-01-09 20:33:00,
2013-01-09 15:43:00,85.0,64.0,30.21,ESE,104,8.0,11.0,49,0.48,,,-99.99,,2013-01-09 20:43:00,
2013-01-09 15:53:00,85.0,65.0,30.21,ESE,108,8.0,12.0,51,0.48,,,-99.99,,2013-01-09 20:53:00,
2013-01-09 16:03:00,84.0,65.0,30.21,East,100,4.0,8.0,53,0.48,,,-99.99,,2013-01-09 21:03:00,
2013-01-09 16:13:00,84.0,65.0,30.21,East,100,4.0,8.0,53,0.48,,,-99.99,,2013-01-09 21:13:00,
2013-01-09 16:23:00,84.0,65.0,30.22,East,100,9.0,14.0,53,0.48,,,-99.99,,2013-01-09 21:23:00,
2013-01-09 16:33:00,84.0,66.0,30.22,ESE,104,6.0,11.0,54,0.48,,,-99.99,,2013-01-09 21:33:00,
2013-01-09 16:43:00,84.0,66.0,30.22,ESE,104,6.0,11.0,54,0.48,,,-99.99,,2013-01-09 21:43:00,
2013-01-09 16:53:00,83.0,65.0,30.22,ESE,107,6.0,10.0,54,0.48,,,-99.99,,2013-01-09 21:53:00,
2013-01-09 17:03:00,83.0,66.0,30.22,East,94,5.0,10.0,56,0.48,,,-99.99,,2013-01-09 22:03:00,
2013-01-09 17:12:00,83.0,66.0,30.22,East,94,5.0,10.0,56,0.48,,,-99.99,,2013-01-09 22:12:00,
2013-01-09 17:23:00,82.0,66.0,30.23,East,90,5.0,9.0,58,0.48,,,-99.99,,2013-01-09 22:23:00,
2013-01-09 17:33:00,82.0,67.0,30.22,East,93,6.0,9.0,60,0.48,,,-99.99,,2013-01-09 22:33:00,
2013-01-09 17:43:00,82.0,67.0,30.22,East,93,6.0,9.0,60,0.48,,,-99.99,,2013-01-09 22:43:00,
2013-01-09 17:52:00,80.0,66.0,30.22,ESE,118,4.0,7.0,62,0.48,,,-99.99,,2013-01-09 22:52:00,
2013-01-09 18:03:00,79.0,66.0,30.23,ESE,105,6.0,10.0,65,0.48,,,-99.99,,2013-01-09 23:03:00,
2013-01-09 18:13:00,78.0,66.0,30.23,ESE,105,6.0,8.0,66,0.48,,,-99.99,,2013-01-09 23:13:00,
2013-01-09 18:23:00,78.0,66.0,30.23,ESE,105,6.0,8.0,66,0.48,,,-99.99,,2013-01-09 23:23:00,
2013-01-09 18:33:00,77.0,65.0,30.24,ESE,105,5.0,8.0,67,0.48,,,-99.99,,2013-01-09 23:33:00,
2013-01-09 18:43:00,77.0,65.0,30.24,ESE,105,5.0,8.0,67,0.48,,,-99.99,,2013-01-09 23:43:00,
2013-01-09 18:53:00,76.0,64.0,30.24,East,101,6.0,12.0,67,0.48,,,-99.99,,2013-01-09 23:53:00,
2013-01-09 19:03:00,76.0,65.0,30.24,ESE,110,7.0,11.0,68,0.48,,,-99.99,,2013-01-10 00:03:00,
2013-01-09 19:12:00,76.0,65.0,30.24,ESE,110,7.0,11.0,68,0.48,,,-99.99,,2013-01-10 00:12:00,
2013-01-09 19:22:00,76.0,65.0,30.25,East,80,8.0,14.0,68,0.48,,,-99.99,,2013-01-10 00:22:00,
2013-01-09 19:32:00,76.0,65.0,30.25,East,86,8.0,15.0,70,0.48,,,-99.99,,2013-01-10 00:32:00,
2013-01-09 19:42:00,76.0,65.0,30.25,East,86,8.0,15.0,70,0.48,,,-99.99,,2013-01-10 00:42:00,
2013-01-09 19:53:00,75.0,65.0,30.26,East,100,9.0,14.0,72,0.48,,,-99.99,,2013-01-10 00:53:00,
2013-01-09 20:02:00,75.0,67.0,30.26,ESE,103,9.0,13.0,77,0.48,,,-99.99,,2013-01-10 01:02:00,
2013-01-09 20:12:00,75.0,67.0,30.26,ESE,103,9.0,13.0,77,0.48,,,-99.99,,2013-01-10 01:12:00,
2013-01-09 20:22:00,74.0,68.0,30.27,East,93,9.0,16.0,82,0.48,,,-99.99,,2013-01-10 01:22:00,
2013-01-09 20:33:00,74.0,69.0,30.27,ESE,113,10.0,16.0,85,0.48,,,-99.99,,2013-01-10 01:33:00,
2013-01-09 20:43:00,74.0,69.0,30.27,ESE,113,10.0,16.0,85,0.48,,,-99.99,,2013-01-10 01:43:00,
2013-01-09 20:53:00,73.0,70.0,30.27,ESE,105,9.0,14.0,91,0.48,,,-99.99,,2013-01-10 01:53:00,
2013-01-09 21:03:00,73.0,71.0,30.27,ESE,105,9.0,15.0,95,0.48,,,-99.99,,2013-01-10 02:03:00,
2013-01-09 21:12:00,73.0,71.0,30.27,ESE,105,9.0,15.0,95,0.48,,,-99.99,,2013-01-10 02:12:00,
2013-01-09 21:22:00,72.0,71.0,30.28,ESE,107,10.0,19.0,97,0.48,,,-99.99,,2013-01-10 02:22:00,
2013-01-09 21:32:00,72.0,72.0,30.28,ESE,110,10.0,15.0,100,0.48,,,-99.99,,2013-01-10 02:32:00,
2013-01-09 21:42:00,72.0,72.0,30.28,ESE,110,10.0,15.0,100,0.48,,,-99.99,,2013-01-10 02:42:00,
2013-01-09 21:53:00,72.0,72.0,30.28,ESE,110,10.0,15.0,100,0.48,,,-99.99,,2013-01-10 02:53:00,
2013-01-09 22:03:00,72.0,72.0,30.28,East,96,8.0,12.0,100,0.48,,,-99.99,,2013-01-10 03:03:00,
2013-01-09 22:12:00,72.0,72.0,30.28,East,96,8.0,12.0,100,0.48,,,-99.99,,2013-01-10 03:12:00,
2013-01-09 22:22:00,71.0,71.0,30.28,East,100,8.0,12.0,100,0.48,,,-99.99,,2013-01-10 03:22:00,
2013-01-09 22:33:00,71.0,71.0,30.28,ESE,107,7.0,13.0,100,0.48,,,-99.99,,2013-01-10 03:33:00,
2013-01-09 22:42:00,71.0,71.0,30.28,ESE,107,7.0,13.0,100,0.48,,,-99.99,,2013-01-10 03:42:00,
2013-01-09 22:53:00,71.0,71.0,30.29,East,100,8.0,12.0,100,0.48,,,-99.99,,2013-01-10 03:53:00,
2013-01-09 23:02:00,71.0,71.0,30.29,East,96,7.0,11.0,100,0.48,,,-99.99,,2013-01-10 04:02:00,
2013-01-09 23:12:00,71.0,71.0,30.29,East,96,7.0,11.0,100,0.48,,,-99.99,,2013-01-10 04:12:00,
2013-01-09 23:22:00,70.0,70.0,30.29,East,79,7.0,10.0,100,0.48,,,-99.99,,2013-01-10 04:22:00,
2013-01-09 23:32:00,70.0,70.0,30.29,East,82,7.0,10.0,100,0.48,,,-99.99,,2013-01-10 04:32:00,
2013-01-09 23:42:00,70.0,70.0,30.29,East,82,7.0,10.0,100,0.48,,,-99.99,,2013-01-10 04:42:00,
2013-01-09 23:52:00,70.0,70.0,30.30,East,79,6.0,8.0,100,0.48,,,-99.99,,2013-01-10 04:52:00,